MIDAS 4 DEB, 194

Orbit data source: Space-Track

MIDAS 4 DEB, 194 is space debris in LEO originally from a launch on Sat, 21 Oct 1961 UTC via an ATLAS AGENA B launch vehicle from the Air Force Western Test Range (AFWTR). Debris objects in space refer to the collection of defunct objects orbiting the Earth. Examples of debris include non-operational satellites, rocket bodies, and fragments generated from explosions, collisions, or faulty payload assembly.

Loading next visibility...
Identifier
194, 1961-028C
Orbit
LEO
Last TLE update
4 days ago
Origin
Manufacturer
MIT-LL
Mission
Spacecraft
Bus & Motor
WESTFORD, Unknown motor
Mass
30 kg wet, 30 kg dry
Launch date (UTC)
1961-10-21 (64 years ago)
Launch vehicle
ATLAS AGENA B
Launch site
Air Force Western Test Range (AFWTR)
Object type
Payload
Rocket body
Debris
Shape & HBR
Cyl, 0.5 m
Radar Cross Section
0.094 m², Medium (>0.1 m² and < 1m²)

Expand to show TLE details & history

TLE from 4 days ago
0 MIDAS 4 DEB
1   194U 61028C   25125.50291200 -.00000006  00000-0 -69294-3 0  9996
2   194  95.8211 162.5957 0402263 223.1652 133.7002  8.70094051 18105
Epoch: 2025-05-05T12:04Z
Definitive object data (Epoch: 2025-05-05T12:04:11.596Z)
Latitude
0.00002°
Longitude
117.93185°
Altitude
3,894.881 km
Speed
6.14 km/s
True Right ascension
10h 50m 22s
True Declination
0° 00' 00"
Sunlit
Object was in daylight at TLE epoch
Visualization TLE readout
Latitude
28.74698°
Longitude
-58.08822°
Altitude
3,448.191 km
Speed
6.423 km/s
Apparent Right ascension
00h 02m 25s
Apparent Declination
2° 51' 00"
Sunlit
Object is in daylight
Visualization observer readout
Local Sidereal Time
13:43:25
Azimuth
34.592° NE
Elevation
-41.372°
Doppler factor
1
Orbital elements
Apogee altitude
4,006.531 km
Perigee altitude
3,203.366 km
Semi-major axis
9,983.086 km
Eccentricity
0.0402263
Inclination
95.8211°
RAAN
162.5957°
Arg. of periapsis
223.1652°
True anomaly
136.91906°
Mean anomaly
133.7002°
Eccentric anomaly
135.32079°
Mean motion
2.17594 °/min
BSTAR
-0.00069294
Orbital period
165.45 mins
Loading maneuver chart data...
Loading SW <> Apogee altitude chart data...
Loading historical data...
Loading historical data...
Loading historical data...
Loading historical data...
Loading historical data...
Loading historical data...
Loading historical data...

MIDAS 4 DEB Visibility forecast

Observer location: undefined°, undefined°

Span
Click to sort rows by Start time (UTC) header in descending order
Start Az.
Max El. time (UTC)
Max El. Az.
Max El.
End time (UTC)
End Az.
34 mins2025-05-09 13:28:43.690Z14.045° NNE2025-05-09 13:46:43.690Z87.448° E38.186°2025-05-09 14:02:43.690Z162.788° S
31 mins2025-05-09 16:13:43.690Z1.878° NNE2025-05-09 16:28:43.690Z301.773° NW37.059°2025-05-09 16:44:43.690Z229.977° WSW
11 mins2025-05-09 18:58:43.690Z350.694° N2025-05-09 19:03:43.690Z334.339° NNW12.635°2025-05-09 19:09:43.690Z314.035° NW
31 mins2025-05-09 23:50:43.690Z107.459° ESE2025-05-10 00:05:43.690Z55.218° ENE29.933°2025-05-10 00:21:43.690Z359.127° N
39 mins2025-05-10 02:26:43.690Z174.021° S2025-05-10 02:45:43.690Z258.912° W44.423°2025-05-10 03:05:43.690Z349.609° N
13 mins2025-05-10 05:21:43.690Z253.43° W2025-05-10 05:32:43.690Z289.022° WNW17.629°2025-05-10 05:34:43.690Z295.981° NW
|